Year,Month,Day,Hour,Minute,Value (Times are PST for temperature in C)
2019,06,12,00,00,20.40
2019,06,12,00,01,20.40
2019,06,12,00,02,20.40
2019,06,12,00,03,20.40
2019,06,12,00,04,20.30
2019,06,12,00,05,20.30
2019,06,12,00,06,20.30
2019,06,12,00,07,20.30
2019,06,12,00,08,20.30
2019,06,12,00,09,20.30
2019,06,12,00,10,20.30
2019,06,12,00,11,20.30
2019,06,12,00,12,20.30
2019,06,12,00,13,20.20
2019,06,12,00,14,20.20
2019,06,12,00,15,20.20
2019,06,12,00,16,20.20
2019,06,12,00,17,20.20
2019,06,12,00,18,20.20
2019,06,12,00,19,20.20
2019,06,12,00,20,20.10
2019,06,12,00,21,20.10
2019,06,12,00,22,20.10
2019,06,12,00,23,20.10
2019,06,12,00,24,20.00
2019,06,12,00,25,20.00
2019,06,12,00,26,20.00
2019,06,12,00,27,19.90
2019,06,12,00,28,19.90
2019,06,12,00,29,19.90
2019,06,12,00,30,19.90
2019,06,12,00,31,19.80
2019,06,12,00,32,19.80
2019,06,12,00,33,19.80
2019,06,12,00,34,19.80
2019,06,12,00,35,19.80
2019,06,12,00,36,19.70
2019,06,12,00,37,19.70
2019,06,12,00,38,19.70
2019,06,12,00,39,19.70
2019,06,12,00,40,19.70
2019,06,12,00,41,19.60
2019,06,12,00,42,19.60
2019,06,12,00,43,19.60
2019,06,12,00,44,19.50
2019,06,12,00,45,19.50
2019,06,12,00,46,19.50
2019,06,12,00,47,19.40
2019,06,12,00,48,19.40
2019,06,12,00,49,19.40
2019,06,12,00,50,19.30
2019,06,12,00,51,19.30
2019,06,12,00,52,19.30
2019,06,12,00,53,19.30
2019,06,12,00,54,19.20
2019,06,12,00,55,19.20
2019,06,12,00,56,19.20
2019,06,12,00,57,19.20
2019,06,12,00,58,19.20
2019,06,12,00,59,19.10
2019,06,12,01,00,19.10
2019,06,12,01,01,19.10
2019,06,12,01,02,19.10
2019,06,12,01,03,19.10
2019,06,12,01,04,19.10
2019,06,12,01,05,19.00
2019,06,12,01,06,19.00
2019,06,12,01,07,19.00
2019,06,12,01,08,18.90
2019,06,12,01,09,18.90
2019,06,12,01,10,18.90
2019,06,12,01,11,18.90
2019,06,12,01,12,18.90
2019,06,12,01,13,18.80
2019,06,12,01,14,18.80
2019,06,12,01,15,18.80
2019,06,12,01,16,18.80
2019,06,12,01,17,18.80
2019,06,12,01,18,18.70
2019,06,12,01,19,18.70
2019,06,12,01,20,18.70
2019,06,12,01,21,18.70
2019,06,12,01,22,18.70
2019,06,12,01,23,18.70
2019,06,12,01,24,18.70
2019,06,12,01,25,18.70
2019,06,12,01,26,18.70
2019,06,12,01,27,18.80
2019,06,12,01,28,18.80
2019,06,12,01,29,18.80
2019,06,12,01,30,18.80
2019,06,12,01,31,18.80
2019,06,12,01,32,18.80
2019,06,12,01,33,18.80
2019,06,12,01,34,18.80
2019,06,12,01,35,18.80
2019,06,12,01,36,18.80
2019,06,12,01,37,18.80
2019,06,12,01,38,18.80
2019,06,12,01,39,18.80
2019,06,12,01,40,18.70
2019,06,12,01,41,18.70
2019,06,12,01,42,18.70
2019,06,12,01,43,18.70
2019,06,12,01,44,18.70
2019,06,12,01,45,18.70
2019,06,12,01,46,18.70
2019,06,12,01,47,18.60
2019,06,12,01,48,18.60
2019,06,12,01,49,18.60
2019,06,12,01,50,18.60
2019,06,12,01,51,18.60
2019,06,12,01,52,18.60
2019,06,12,01,53,18.50
2019,06,12,01,54,18.40
2019,06,12,01,55,18.40
2019,06,12,01,56,18.40
2019,06,12,01,57,18.30
2019,06,12,01,58,18.30
2019,06,12,01,59,18.30
2019,06,12,02,00,18.30
2019,06,12,02,01,18.30
2019,06,12,02,02,18.20
2019,06,12,02,03,18.20
2019,06,12,02,04,18.10
2019,06,12,02,05,18.10
2019,06,12,02,06,18.10
2019,06,12,02,07,18.10
2019,06,12,02,08,18.00
2019,06,12,02,09,18.00
2019,06,12,02,10,17.90
2019,06,12,02,11,17.90
2019,06,12,02,12,17.90
2019,06,12,02,13,17.80
2019,06,12,02,14,17.80
2019,06,12,02,15,17.80
2019,06,12,02,16,17.80
2019,06,12,02,17,17.80
2019,06,12,02,18,17.80
2019,06,12,02,19,17.70
2019,06,12,02,20,17.70
2019,06,12,02,21,17.70
2019,06,12,02,22,17.70
2019,06,12,02,23,17.70
2019,06,12,02,24,17.70
2019,06,12,02,25,17.70
2019,06,12,02,26,17.70
2019,06,12,02,27,17.70
2019,06,12,02,28,17.70
2019,06,12,02,29,17.70
2019,06,12,02,30,17.70
2019,06,12,02,31,17.70
2019,06,12,02,32,17.60
2019,06,12,02,33,17.60
2019,06,12,02,34,17.60
2019,06,12,02,35,17.60
2019,06,12,02,36,17.60
2019,06,12,02,37,17.60
2019,06,12,02,38,17.60
2019,06,12,02,39,17.60
2019,06,12,02,40,17.60
2019,06,12,02,41,17.60
2019,06,12,02,42,17.60
2019,06,12,02,43,17.60
2019,06,12,02,44,17.60
2019,06,12,02,45,17.50
2019,06,12,02,46,17.50
2019,06,12,02,47,17.50
2019,06,12,02,48,17.50
2019,06,12,02,49,17.40
2019,06,12,02,50,17.40
2019,06,12,02,51,17.40
2019,06,12,02,52,17.40
2019,06,12,02,53,17.40
2019,06,12,02,54,17.30
2019,06,12,02,55,17.30
2019,06,12,02,56,17.30
2019,06,12,02,57,17.30
2019,06,12,02,58,17.30
2019,06,12,02,59,17.30
2019,06,12,03,00,17.30
2019,06,12,03,01,17.30
2019,06,12,03,02,17.30
2019,06,12,03,03,17.30
2019,06,12,03,04,17.30
2019,06,12,03,05,17.30
2019,06,12,03,06,17.30
2019,06,12,03,07,17.30
2019,06,12,03,08,17.30
2019,06,12,03,09,17.30
2019,06,12,03,10,17.20
2019,06,12,03,11,17.20
2019,06,12,03,12,17.20
2019,06,12,03,13,17.20
2019,06,12,03,14,17.20
2019,06,12,03,15,17.20
2019,06,12,03,16,17.10
2019,06,12,03,17,17.10
2019,06,12,03,18,17.10
2019,06,12,03,19,17.10
2019,06,12,03,20,17.10
2019,06,12,03,21,17.10
2019,06,12,03,22,17.10
2019,06,12,03,23,17.00
2019,06,12,03,24,17.00
2019,06,12,03,25,17.00
2019,06,12,03,26,17.00
2019,06,12,03,27,17.00
2019,06,12,03,28,17.00
2019,06,12,03,29,17.00
2019,06,12,03,30,17.00
2019,06,12,03,31,17.00
2019,06,12,03,32,17.00
2019,06,12,03,33,16.90
2019,06,12,03,34,17.00
2019,06,12,03,35,16.90
2019,06,12,03,36,16.90
2019,06,12,03,37,16.90
2019,06,12,03,38,16.90
2019,06,12,03,39,16.90
2019,06,12,03,40,16.90
2019,06,12,03,41,16.90
2019,06,12,03,42,16.90
2019,06,12,03,43,16.90
2019,06,12,03,44,16.90
2019,06,12,03,45,16.90
2019,06,12,03,46,16.90
2019,06,12,03,47,16.90
2019,06,12,03,48,16.80
2019,06,12,03,49,16.80
2019,06,12,03,50,16.80
2019,06,12,03,51,16.80
2019,06,12,03,52,16.80
2019,06,12,03,53,16.80
2019,06,12,03,54,16.80
2019,06,12,03,55,16.80
2019,06,12,03,56,16.80
2019,06,12,03,57,16.80
2019,06,12,03,58,16.80
2019,06,12,03,59,16.80
2019,06,12,04,00,16.80
2019,06,12,04,01,16.80
2019,06,12,04,02,16.80
2019,06,12,04,03,16.80
2019,06,12,04,04,16.80
2019,06,12,04,05,16.80
2019,06,12,04,06,16.80
2019,06,12,04,07,16.80
2019,06,12,04,08,16.80
2019,06,12,04,09,16.80
2019,06,12,04,10,16.80
2019,06,12,04,11,16.80
2019,06,12,04,12,16.80
2019,06,12,04,13,16.80
2019,06,12,04,14,16.80
2019,06,12,04,15,16.80
2019,06,12,04,16,16.80
2019,06,12,04,17,16.80
2019,06,12,04,18,16.80
2019,06,12,04,19,16.80
2019,06,12,04,20,16.80
2019,06,12,04,21,16.80
2019,06,12,04,22,16.80
2019,06,12,04,23,16.80
2019,06,12,04,24,16.80
2019,06,12,04,25,16.80
2019,06,12,04,26,16.80
2019,06,12,04,27,16.80
2019,06,12,04,28,16.80
2019,06,12,04,29,16.80
2019,06,12,04,30,16.80
2019,06,12,04,31,16.80
2019,06,12,04,32,16.80
2019,06,12,04,33,16.80
2019,06,12,04,34,16.80
2019,06,12,04,35,16.70
2019,06,12,04,36,16.70
2019,06,12,04,37,16.70
2019,06,12,04,38,16.70
2019,06,12,04,39,16.70
2019,06,12,04,40,16.70
2019,06,12,04,41,16.70
2019,06,12,04,42,16.70
2019,06,12,04,43,16.70
2019,06,12,04,44,16.60
2019,06,12,04,45,16.60
2019,06,12,04,46,16.60
2019,06,12,04,47,16.60
2019,06,12,04,48,16.60
2019,06,12,04,49,16.50
2019,06,12,04,50,16.50
2019,06,12,04,51,16.50
2019,06,12,04,52,16.40
2019,06,12,04,53,16.40
2019,06,12,04,54,16.40
2019,06,12,04,55,16.40
2019,06,12,04,56,16.40
2019,06,12,04,57,16.30
2019,06,12,04,58,16.30
2019,06,12,04,59,16.30
2019,06,12,05,00,16.30
2019,06,12,05,01,16.30
2019,06,12,05,02,16.30
2019,06,12,05,03,16.20
2019,06,12,05,04,16.20
2019,06,12,05,05,16.20
2019,06,12,05,06,16.20
2019,06,12,05,07,16.20
2019,06,12,05,08,16.10
2019,06,12,05,09,16.10
2019,06,12,05,10,16.10
2019,06,12,05,11,16.10
2019,06,12,05,12,16.10
2019,06,12,05,13,16.00
2019,06,12,05,14,16.00
2019,06,12,05,15,16.00
2019,06,12,05,16,15.90
2019,06,12,05,17,15.90
2019,06,12,05,18,15.90
2019,06,12,05,19,15.80
2019,06,12,05,20,15.80
2019,06,12,05,21,15.80
2019,06,12,05,22,15.80
2019,06,12,05,23,15.80
2019,06,12,05,24,15.80
2019,06,12,05,25,15.70
2019,06,12,05,26,15.70
2019,06,12,05,27,15.70
2019,06,12,05,28,15.70
2019,06,12,05,29,15.70
2019,06,12,05,30,15.70
2019,06,12,05,31,15.70
2019,06,12,05,32,15.70
2019,06,12,05,33,15.70
2019,06,12,05,34,15.70
2019,06,12,05,35,15.70
2019,06,12,05,36,15.70
2019,06,12,05,37,15.70
2019,06,12,05,38,15.70
2019,06,12,05,39,15.70
2019,06,12,05,40,15.70
2019,06,12,05,41,15.70
2019,06,12,05,42,15.70
2019,06,12,05,43,15.70
2019,06,12,05,44,15.70
2019,06,12,05,45,15.80
2019,06,12,05,46,15.80
2019,06,12,05,47,15.80
2019,06,12,05,48,15.80
2019,06,12,05,49,15.80
2019,06,12,05,50,15.80
2019,06,12,05,51,15.80
2019,06,12,05,52,15.80
2019,06,12,05,53,15.90
2019,06,12,05,54,15.90
2019,06,12,05,55,15.90
2019,06,12,05,56,15.90
2019,06,12,05,57,16.00
2019,06,12,05,58,16.00
2019,06,12,05,59,16.10
2019,06,12,06,00,16.10
2019,06,12,06,01,16.20
2019,06,12,06,02,16.20
2019,06,12,06,03,16.20
2019,06,12,06,04,16.30
2019,06,12,06,05,16.30
2019,06,12,06,06,16.30
2019,06,12,06,07,16.40
2019,06,12,06,08,16.40
2019,06,12,06,09,16.40
2019,06,12,06,10,16.40
2019,06,12,06,11,16.50
2019,06,12,06,12,16.50
2019,06,12,06,13,16.50
2019,06,12,06,14,16.50
2019,06,12,06,15,16.40
2019,06,12,06,16,16.30
2019,06,12,06,17,16.30
2019,06,12,06,18,16.20
2019,06,12,06,19,16.20
2019,06,12,06,20,16.10
2019,06,12,06,21,16.10
2019,06,12,06,22,16.00
2019,06,12,06,23,16.00
2019,06,12,06,24,16.00
2019,06,12,06,25,16.00
2019,06,12,06,26,16.00
2019,06,12,06,27,15.90
2019,06,12,06,28,16.00
2019,06,12,06,29,16.00
2019,06,12,06,30,16.00
2019,06,12,06,31,16.10
2019,06,12,06,32,16.10
2019,06,12,06,33,16.10
2019,06,12,06,34,16.20
2019,06,12,06,35,16.20
2019,06,12,06,36,16.30
2019,06,12,06,37,16.30
2019,06,12,06,38,16.40
2019,06,12,06,39,16.40
2019,06,12,06,40,16.40
2019,06,12,06,41,16.50
2019,06,12,06,42,16.50
2019,06,12,06,43,16.50
2019,06,12,06,44,16.40
2019,06,12,06,45,16.40
2019,06,12,06,46,16.40
2019,06,12,06,47,16.40
2019,06,12,06,48,16.40
2019,06,12,06,49,16.30
2019,06,12,06,50,16.30
2019,06,12,06,51,16.30
2019,06,12,06,52,16.20
2019,06,12,06,53,16.20
2019,06,12,06,54,16.20
2019,06,12,06,55,16.20
2019,06,12,06,56,16.20
2019,06,12,06,57,16.20
2019,06,12,06,58,16.20
2019,06,12,06,59,16.20
2019,06,12,07,00,16.20
2019,06,12,07,01,16.20
2019,06,12,07,02,16.20
2019,06,12,07,03,16.30
2019,06,12,07,04,16.40
2019,06,12,07,05,16.40
2019,06,12,07,06,16.50
2019,06,12,07,07,16.60
2019,06,12,07,08,16.70
2019,06,12,07,09,16.70
2019,06,12,07,10,16.80
2019,06,12,07,11,16.90
2019,06,12,07,12,16.90
2019,06,12,07,13,17.00
2019,06,12,07,14,17.10
2019,06,12,07,15,17.10
2019,06,12,07,16,17.20
2019,06,12,07,17,17.20
2019,06,12,07,18,17.20
2019,06,12,07,19,17.30
2019,06,12,07,20,17.30
2019,06,12,07,21,17.40
2019,06,12,07,22,17.40
2019,06,12,07,23,17.50
2019,06,12,07,24,17.60
2019,06,12,07,25,17.60
2019,06,12,07,26,17.70
2019,06,12,07,27,17.70
2019,06,12,07,28,17.90
2019,06,12,07,29,18.10
2019,06,12,07,30,18.20
2019,06,12,07,31,18.30
2019,06,12,07,32,18.40
2019,06,12,07,33,18.50
2019,06,12,07,34,18.50
2019,06,12,07,35,18.60
2019,06,12,07,36,18.60
2019,06,12,07,37,18.70
2019,06,12,07,38,18.70
2019,06,12,07,39,18.80
2019,06,12,07,40,18.90
2019,06,12,07,41,18.90
2019,06,12,07,42,19.00
2019,06,12,07,43,19.00
2019,06,12,07,44,19.10
2019,06,12,07,45,19.10
2019,06,12,07,46,19.10
2019,06,12,07,47,19.20
2019,06,12,07,48,19.20
2019,06,12,07,49,19.20
2019,06,12,07,50,19.20
2019,06,12,07,51,19.20
2019,06,12,07,52,19.20
2019,06,12,07,53,19.20
2019,06,12,07,54,19.30
2019,06,12,07,55,19.30
2019,06,12,07,56,19.30
2019,06,12,07,57,19.30
2019,06,12,07,58,19.40
2019,06,12,07,59,19.40
2019,06,12,08,00,19.50
2019,06,12,08,01,19.60
2019,06,12,08,02,19.60
2019,06,12,08,03,19.70
2019,06,12,08,04,19.70
2019,06,12,08,05,19.70
2019,06,12,08,06,19.70
2019,06,12,08,07,19.70
2019,06,12,08,08,19.80
2019,06,12,08,09,19.80
2019,06,12,08,10,19.80
2019,06,12,08,11,19.80
2019,06,12,08,12,19.90
2019,06,12,08,13,19.90
2019,06,12,08,14,19.90
2019,06,12,08,15,20.00
2019,06,12,08,16,20.10
2019,06,12,08,17,20.10
2019,06,12,08,18,20.20
2019,06,12,08,19,20.30
2019,06,12,08,20,20.30
2019,06,12,08,21,20.30
2019,06,12,08,22,20.40
2019,06,12,08,23,20.40
2019,06,12,08,24,20.40
2019,06,12,08,25,20.40
2019,06,12,08,26,20.50
2019,06,12,08,27,20.50
2019,06,12,08,28,20.60
2019,06,12,08,29,20.60
2019,06,12,08,30,20.60
2019,06,12,08,31,20.60
2019,06,12,08,32,20.70
2019,06,12,08,33,20.70
2019,06,12,08,34,20.70
2019,06,12,08,35,20.70
2019,06,12,08,36,20.70
2019,06,12,08,37,20.70
2019,06,12,08,38,20.70
2019,06,12,08,39,20.70
2019,06,12,08,40,20.70
2019,06,12,08,41,20.70
2019,06,12,08,42,20.70
2019,06,12,08,43,20.70
2019,06,12,08,44,20.80
2019,06,12,08,45,20.80
2019,06,12,08,46,20.90
2019,06,12,08,47,20.90
2019,06,12,08,48,21.00
2019,06,12,08,49,21.00
2019,06,12,08,50,21.00
2019,06,12,08,51,21.10
2019,06,12,08,52,21.20
2019,06,12,08,53,21.20
2019,06,12,08,54,21.30
2019,06,12,08,55,21.30
2019,06,12,08,56,21.30
2019,06,12,08,57,21.40
2019,06,12,08,58,21.50
2019,06,12,08,59,21.50
2019,06,12,09,00,21.60
2019,06,12,09,01,21.70
2019,06,12,09,02,21.80
2019,06,12,09,03,21.90
2019,06,12,09,04,22.00
2019,06,12,09,05,22.00
2019,06,12,09,06,22.10
2019,06,12,09,07,22.20
2019,06,12,09,08,22.20
2019,06,12,09,09,22.20
2019,06,12,09,10,22.20
2019,06,12,09,11,22.20
2019,06,12,09,12,22.30
2019,06,12,09,13,22.40
2019,06,12,09,14,22.50
2019,06,12,09,15,22.50
2019,06,12,09,16,22.60
2019,06,12,09,17,22.70
2019,06,12,09,18,22.70
2019,06,12,09,19,22.80
2019,06,12,09,20,22.90
2019,06,12,09,21,22.90
2019,06,12,09,22,22.90
2019,06,12,09,23,22.90
2019,06,12,09,24,22.90
2019,06,12,09,25,22.90
2019,06,12,09,26,22.90
2019,06,12,09,27,22.90
2019,06,12,09,28,22.90
2019,06,12,09,29,22.90
2019,06,12,09,30,22.90
2019,06,12,09,31,23.00
2019,06,12,09,32,23.00
2019,06,12,09,33,23.10
2019,06,12,09,34,23.20
2019,06,12,09,35,23.20
2019,06,12,09,36,23.30
2019,06,12,09,37,23.40
2019,06,12,09,38,23.40
2019,06,12,09,39,23.50
2019,06,12,09,40,23.60
2019,06,12,09,41,23.70
2019,06,12,09,42,23.80
2019,06,12,09,43,23.90
2019,06,12,09,44,24.00
2019,06,12,09,45,24.10
2019,06,12,09,46,24.20
2019,06,12,09,47,24.30
2019,06,12,09,48,24.40
2019,06,12,09,49,24.50
2019,06,12,09,50,24.60
2019,06,12,09,51,24.60
2019,06,12,09,52,24.60
2019,06,12,09,53,24.60
2019,06,12,09,54,24.50
2019,06,12,09,55,24.60
2019,06,12,09,56,24.50
2019,06,12,09,57,24.50
2019,06,12,09,58,24.50
2019,06,12,09,59,24.50
2019,06,12,10,00,24.50
2019,06,12,10,01,24.50
2019,06,12,10,02,24.60
2019,06,12,10,03,24.60
2019,06,12,10,04,24.60
2019,06,12,10,05,24.50
2019,06,12,10,06,24.50
2019,06,12,10,07,24.40
2019,06,12,10,08,24.40
2019,06,12,10,09,24.40
2019,06,12,10,10,24.40
2019,06,12,10,11,24.40
2019,06,12,10,12,24.40
2019,06,12,10,13,24.50
2019,06,12,10,14,24.50
2019,06,12,10,15,24.60
2019,06,12,10,16,24.60
2019,06,12,10,17,24.60
2019,06,12,10,18,24.70
2019,06,12,10,19,24.80
2019,06,12,10,20,24.90
2019,06,12,10,21,24.90
2019,06,12,10,22,24.90
2019,06,12,10,23,25.00
2019,06,12,10,24,25.00
2019,06,12,10,25,25.10
2019,06,12,10,26,25.20
2019,06,12,10,27,25.30
2019,06,12,10,28,25.40
2019,06,12,10,29,25.60
2019,06,12,10,30,25.70
2019,06,12,10,31,25.80
2019,06,12,10,32,25.90
2019,06,12,10,33,26.00
2019,06,12,10,34,26.10
2019,06,12,10,35,26.10
2019,06,12,10,36,26.00
2019,06,12,10,37,26.00
2019,06,12,10,38,26.00
2019,06,12,10,39,26.00
2019,06,12,10,40,26.00
2019,06,12,10,41,26.00
2019,06,12,10,42,26.10
2019,06,12,10,43,26.10
2019,06,12,10,44,26.10
2019,06,12,10,45,26.10
2019,06,12,10,46,26.00
2019,06,12,10,47,26.00
2019,06,12,10,48,26.00
2019,06,12,10,49,25.90
2019,06,12,10,50,25.90
2019,06,12,10,51,25.90
2019,06,12,10,52,26.00
2019,06,12,10,53,25.90
2019,06,12,10,54,25.90
2019,06,12,10,55,25.90
2019,06,12,10,56,25.90
2019,06,12,10,57,25.90
2019,06,12,10,58,25.90
2019,06,12,10,59,25.90
2019,06,12,11,00,25.90
2019,06,12,11,01,25.90
2019,06,12,11,02,25.90
2019,06,12,11,03,26.00
2019,06,12,11,04,26.00
2019,06,12,11,05,26.10
2019,06,12,11,06,26.10
2019,06,12,11,07,26.20
2019,06,12,11,08,26.20
2019,06,12,11,09,26.20
2019,06,12,11,10,26.20
2019,06,12,11,11,26.20
2019,06,12,11,12,26.10
2019,06,12,11,13,26.10
2019,06,12,11,14,26.10
2019,06,12,11,15,26.00
2019,06,12,11,16,26.00
2019,06,12,11,17,26.00
2019,06,12,11,18,26.10
2019,06,12,11,19,26.00
2019,06,12,11,20,26.00
2019,06,12,11,21,26.00
2019,06,12,11,22,25.90
2019,06,12,11,23,25.90
2019,06,12,11,24,25.90
2019,06,12,11,25,25.90
2019,06,12,11,26,25.90
2019,06,12,11,27,25.90
2019,06,12,11,28,25.90
2019,06,12,11,29,25.90
2019,06,12,11,30,26.00
2019,06,12,11,31,26.00
2019,06,12,11,32,26.10
2019,06,12,11,33,26.20
2019,06,12,11,34,26.30
2019,06,12,11,35,26.40
2019,06,12,11,36,26.50
2019,06,12,11,37,26.50
2019,06,12,11,38,26.60
2019,06,12,11,39,26.60
2019,06,12,11,40,26.70
2019,06,12,11,41,26.60
2019,06,12,11,42,26.60
2019,06,12,11,43,26.60
2019,06,12,11,44,26.60
2019,06,12,11,45,26.60
2019,06,12,11,46,26.60
2019,06,12,11,47,26.60
2019,06,12,11,48,26.60
2019,06,12,11,49,26.70
2019,06,12,11,50,26.70
2019,06,12,11,51,26.70
2019,06,12,11,52,26.70
2019,06,12,11,53,26.80
2019,06,12,11,54,26.80
2019,06,12,11,55,26.90
2019,06,12,11,56,26.90
2019,06,12,11,57,26.90
2019,06,12,11,58,26.90
2019,06,12,11,59,26.90
2019,06,12,12,00,26.90
2019,06,12,12,01,26.90
2019,06,12,12,02,26.90
2019,06,12,12,03,26.90
2019,06,12,12,04,26.90
2019,06,12,12,05,26.80
2019,06,12,12,06,26.80
2019,06,12,12,07,26.70
2019,06,12,12,08,26.70
2019,06,12,12,09,26.60
2019,06,12,12,10,26.60
2019,06,12,12,11,26.60
2019,06,12,12,12,26.50
2019,06,12,12,13,26.50
2019,06,12,12,14,26.50
2019,06,12,12,15,26.50
2019,06,12,12,16,26.50
2019,06,12,12,17,26.50
2019,06,12,12,18,26.50
2019,06,12,12,19,26.70
2019,06,12,12,20,26.60
2019,06,12,12,21,26.60
2019,06,12,12,22,26.60
2019,06,12,12,23,26.60
2019,06,12,12,24,26.70
2019,06,12,12,25,26.70
2019,06,12,12,26,26.80
2019,06,12,12,27,26.80
2019,06,12,12,28,26.90
2019,06,12,12,29,27.00
2019,06,12,12,30,27.00
2019,06,12,12,31,27.10
2019,06,12,12,32,27.10
2019,06,12,12,33,27.20
2019,06,12,12,34,27.40
2019,06,12,12,35,27.50
2019,06,12,12,36,27.60
2019,06,12,12,37,27.70
2019,06,12,12,38,27.80
2019,06,12,12,39,27.80
2019,06,12,12,40,27.80
2019,06,12,12,41,27.80
2019,06,12,12,42,28.20
2019,06,12,12,43,28.30
2019,06,12,12,44,28.30
2019,06,12,12,45,28.40
2019,06,12,12,46,28.50
2019,06,12,12,47,28.50
2019,06,12,12,48,28.60
2019,06,12,12,49,28.70
2019,06,12,12,50,28.70
2019,06,12,12,51,28.70
2019,06,12,12,52,28.70
2019,06,12,12,53,28.70
2019,06,12,12,54,28.80
2019,06,12,12,55,28.80
2019,06,12,12,56,28.80
2019,06,12,12,57,28.80
2019,06,12,12,58,28.70
2019,06,12,12,59,28.70
2019,06,12,13,00,28.70
2019,06,12,13,01,28.60
2019,06,12,13,02,28.70
2019,06,12,13,03,28.70
2019,06,12,13,04,28.60
2019,06,12,13,05,28.60
2019,06,12,13,06,28.60
2019,06,12,13,07,28.60
2019,06,12,13,08,28.60
2019,06,12,13,09,28.60
2019,06,12,13,10,28.70
2019,06,12,13,11,28.70
2019,06,12,13,12,28.70
2019,06,12,13,13,28.70
2019,06,12,13,14,28.70
2019,06,12,13,15,28.70
2019,06,12,13,16,28.70
2019,06,12,13,17,28.80
2019,06,12,13,18,28.90
2019,06,12,13,19,29.00
2019,06,12,13,20,29.00
2019,06,12,13,21,29.10
2019,06,12,13,22,29.10
2019,06,12,13,23,29.20
2019,06,12,13,24,29.40
2019,06,12,13,25,29.50
2019,06,12,13,26,29.60
2019,06,12,13,27,29.70
2019,06,12,13,28,29.70
2019,06,12,13,29,29.70
2019,06,12,13,30,29.70
2019,06,12,13,31,29.70
2019,06,12,13,32,29.70
2019,06,12,13,33,29.70
2019,06,12,13,34,29.70
2019,06,12,13,35,29.70
2019,06,12,13,36,29.70
2019,06,12,13,37,29.80
2019,06,12,13,38,29.80
2019,06,12,13,39,29.80
2019,06,12,13,40,29.80
2019,06,12,13,41,29.80
2019,06,12,13,42,29.80
2019,06,12,13,43,29.90
2019,06,12,13,44,29.90
2019,06,12,13,45,29.90
2019,06,12,13,46,30.00
2019,06,12,13,47,30.00
2019,06,12,13,48,30.10
2019,06,12,13,49,30.10
2019,06,12,13,50,30.10
2019,06,12,13,51,30.20
2019,06,12,13,52,30.30
2019,06,12,13,53,30.50
2019,06,12,13,54,30.70
2019,06,12,13,55,30.90
2019,06,12,13,56,31.10
2019,06,12,13,57,31.20
2019,06,12,13,58,31.30
2019,06,12,13,59,31.40
2019,06,12,14,00,31.40
2019,06,12,14,01,31.40
2019,06,12,14,02,31.40
2019,06,12,14,03,31.40
2019,06,12,14,04,31.40
2019,06,12,14,05,31.40
2019,06,12,14,06,31.40
2019,06,12,14,07,31.40
2019,06,12,14,08,31.40
2019,06,12,14,09,31.40
2019,06,12,14,10,31.40
2019,06,12,14,11,31.40
2019,06,12,14,12,31.50
2019,06,12,14,13,31.60
2019,06,12,14,14,31.60
2019,06,12,14,15,31.60
2019,06,12,14,16,31.50
2019,06,12,14,17,31.50
2019,06,12,14,18,31.50
2019,06,12,14,19,31.60
2019,06,12,14,20,31.60
2019,06,12,14,21,31.70
2019,06,12,14,22,31.80
2019,06,12,14,23,31.80
2019,06,12,14,24,31.90
2019,06,12,14,25,31.90
2019,06,12,14,26,32.00
2019,06,12,14,27,32.10
2019,06,12,14,28,32.10
2019,06,12,14,29,32.10
2019,06,12,14,30,32.30
2019,06,12,14,31,32.30
2019,06,12,14,32,32.30
2019,06,12,14,33,32.20
2019,06,12,14,34,32.20
2019,06,12,14,35,32.20
2019,06,12,14,36,32.20
2019,06,12,14,37,32.20
2019,06,12,14,38,32.30
2019,06,12,14,39,32.30
2019,06,12,14,40,32.30
2019,06,12,14,41,32.30
2019,06,12,14,42,32.30
2019,06,12,14,43,32.40
2019,06,12,14,44,32.40
2019,06,12,14,45,32.50
2019,06,12,14,46,32.50
2019,06,12,14,47,32.60
2019,06,12,14,48,32.70
2019,06,12,14,49,32.60
2019,06,12,14,50,32.60
2019,06,12,14,51,32.60
2019,06,12,14,52,32.60
2019,06,12,14,53,32.70
2019,06,12,14,54,32.70
2019,06,12,14,55,32.80
2019,06,12,14,56,32.80
2019,06,12,14,57,32.90
2019,06,12,14,58,33.00
2019,06,12,14,59,33.00
2019,06,12,15,00,33.10
2019,06,12,15,01,33.10
2019,06,12,15,02,33.00
2019,06,12,15,03,33.00
2019,06,12,15,04,33.00
2019,06,12,15,05,33.00
2019,06,12,15,06,32.90
2019,06,12,15,07,32.90
2019,06,12,15,08,32.90
2019,06,12,15,09,32.90
2019,06,12,15,10,33.00
2019,06,12,15,11,33.00
2019,06,12,15,12,33.10
2019,06,12,15,13,33.20
2019,06,12,15,14,33.30
2019,06,12,15,15,33.30
2019,06,12,15,16,33.40
2019,06,12,15,17,33.40
2019,06,12,15,18,33.50
2019,06,12,15,19,33.50
2019,06,12,15,20,33.50
2019,06,12,15,21,33.50
2019,06,12,15,22,33.50
2019,06,12,15,23,33.50
2019,06,12,15,24,33.40
2019,06,12,15,25,33.40
2019,06,12,15,26,33.50
2019,06,12,15,27,33.60
2019,06,12,15,28,33.70
2019,06,12,15,29,33.80
2019,06,12,15,30,33.90
2019,06,12,15,31,33.90
2019,06,12,15,32,33.90
2019,06,12,15,33,33.90
2019,06,12,15,34,34.00
2019,06,12,15,35,34.00
2019,06,12,15,36,34.00
2019,06,12,15,37,33.90
2019,06,12,15,38,33.90
2019,06,12,15,39,33.80
2019,06,12,15,40,33.80
2019,06,12,15,41,33.80
2019,06,12,15,42,33.80
2019,06,12,15,43,33.80
2019,06,12,15,44,33.80
2019,06,12,15,45,33.80
2019,06,12,15,46,33.80
2019,06,12,15,47,33.80
2019,06,12,15,48,33.80
2019,06,12,15,49,33.80
2019,06,12,15,50,33.70
2019,06,12,15,51,33.60
2019,06,12,15,52,33.60
2019,06,12,15,53,33.60
2019,06,12,15,54,33.70
2019,06,12,15,55,33.70
2019,06,12,15,56,33.80
2019,06,12,15,57,33.80
2019,06,12,15,58,33.80
2019,06,12,15,59,33.70
2019,06,12,16,00,33.70
2019,06,12,16,01,33.60
2019,06,12,16,02,33.70
2019,06,12,16,03,33.80
2019,06,12,16,04,33.80
2019,06,12,16,05,33.90
2019,06,12,16,06,34.00
2019,06,12,16,07,34.10
2019,06,12,16,08,34.10
2019,06,12,16,09,34.10
2019,06,12,16,10,34.20
2019,06,12,16,11,34.20
2019,06,12,16,12,34.20
2019,06,12,16,13,34.30
2019,06,12,16,14,34.40
2019,06,12,16,15,34.50
2019,06,12,16,16,34.50
2019,06,12,16,17,34.60
2019,06,12,16,18,34.60
2019,06,12,16,19,34.60
2019,06,12,16,20,34.50
2019,06,12,16,21,34.40
2019,06,12,16,22,34.40
2019,06,12,16,23,34.30
2019,06,12,16,24,34.20
2019,06,12,16,25,34.20
2019,06,12,16,26,34.10
2019,06,12,16,27,34.10
2019,06,12,16,28,34.00
2019,06,12,16,29,34.00
2019,06,12,16,30,34.00
2019,06,12,16,31,34.00
2019,06,12,16,32,34.00
2019,06,12,16,33,34.00
2019,06,12,16,34,34.10
2019,06,12,16,35,34.10
2019,06,12,16,36,34.20
2019,06,12,16,37,34.20
2019,06,12,16,38,34.10
2019,06,12,16,39,34.10
2019,06,12,16,40,34.00
2019,06,12,16,41,34.10
2019,06,12,16,42,34.10
2019,06,12,16,43,34.10
2019,06,12,16,44,34.10
2019,06,12,16,45,34.10
2019,06,12,16,46,34.00
2019,06,12,16,47,34.00
2019,06,12,16,48,33.90
2019,06,12,16,49,33.90
2019,06,12,16,50,33.90
2019,06,12,16,51,33.90
2019,06,12,16,52,34.00
2019,06,12,16,53,34.00
2019,06,12,16,54,34.00
2019,06,12,16,55,34.10
2019,06,12,16,56,34.10
2019,06,12,16,57,34.10
2019,06,12,16,58,34.10
2019,06,12,16,59,34.00
2019,06,12,17,00,34.00
2019,06,12,17,01,33.90
2019,06,12,17,02,33.90
2019,06,12,17,03,33.90
2019,06,12,17,04,33.90
2019,06,12,17,05,33.90
2019,06,12,17,06,33.90
2019,06,12,17,07,33.90
2019,06,12,17,08,33.90
2019,06,12,17,09,33.90
2019,06,12,17,10,34.00
2019,06,12,17,11,34.00
2019,06,12,17,12,34.10
2019,06,12,17,13,34.10
2019,06,12,17,14,34.00
2019,06,12,17,15,34.00
2019,06,12,17,16,34.00
2019,06,12,17,17,34.00
2019,06,12,17,18,33.90
2019,06,12,17,19,33.90